Content
SEND FEEDBACK

Daily
Averages
Monthly
Summary
United States of America

CARY, NORTH CAROLINA


Home > North America > United States > North Carolina
Elevation: 385 feet     Latitude: 35 44N     Longitude: 078 41W

WEATHER
 
SELECT A DAY
Number of Records: 195,921;   Date Range: 1/1/95 - 10/23/14
 
SHARE

PRINT THIS DATA

[ ← Previous Day ]
WEATHER ALMANAC - MARCH 19, 2013
[ Next Day → ]
[ °C ]   °F
Weather ElementAverageHighLow
Temperature49.8 °F66 °F (4:51 pm)39.2 °F (4:42 am)
Dewpoint32.2 °F44.1 °F (10:51 am)7 °F (11:51 pm)
Humidity62.7 %100 % (6:02 am)16 % (6:51 pm)
Barometer29.88 in30.02 in (11:51 pm)29.82 in (4:42 am)
Wind Speed6.1 mph16.1 mph (6:51 pm)
Wind Gust25.3 mph (6:51 pm)
Weather ElementAverage
Visibility6.8 mi
Wind DirectionSSW (191.7 °)

Weather ElementTotal
Precipitation---
Heating Degree Days12.4 (Base 65)
Growing Degree Days2.6 (Base 50)
Averaged from 29 records on March 19, 2013
WEATHER CONDITIONS BREAKOUT
WIND DIRECTION BREAKOUT
WEATHER BY HOUR - MARCH 19, 2013
[ °C ]   °F
Local TimeTemperatureDewpointHumidityBarometerVisibilityWind DirectionWind SpeedGust SpeedPrecipitationEventsConditions
1:51 AM41.0 °F39.2 °F93 %29.87 in10.0 miVariable3.5 mphMostly Cloudy
2:51 AM41.0 °F39.0 °F93 %29.84 in10.0 miNNE (20°)3.5 mphOvercast
3:51 AM39.9 °F37.9 °F93 %29.83 in10.0 miCalmOvercast
4:42 AM39.2 °F37.4 °F93 %29.82 in1.0 miCalmOvercast
4:51 AM39.9 °F37.9 °F93 %29.83 in1.0 miCalmOvercast
5:06 AM39.2 °F37.4 °F93 %29.84 in0.5 miCalm0.00 inFogDrizzle
5:51 AM39.9 °F39.0 °F97 %29.84 in0.2 miCalm0.00 inFogHeavy Drizzle
6:02 AM39.2 °F39.2 °F100 %29.83 in0.8 miWSW (240°)3.5 mph0.00 inLight Drizzle
6:51 AM41.0 °F39.0 °F93 %29.84 in0.8 miWSW (240°)4.6 mph0.00 inOvercast
7:51 AM41.0 °F39.9 °F96 %29.83 in0.2 miCalmFogFog
8:19 AM42.8 °F39.2 °F87 %29.85 in1.0 miWSW (250°)4.6 mphOvercast
8:51 AM42.1 °F41.0 °F96 %29.88 in2.5 miWSW (250°)6.9 mphOvercast
9:36 AM42.8 °F41.0 °F93 %29.89 in5.0 miWest (280°)5.8 mphOvercast
9:51 AM44.1 °F41.0 °F89 %29.90 in6.0 miWNW (300°)6.9 mphOvercast
10:12 AM46.4 °F42.8 °F87 %29.89 in8.0 miWest (280°)5.8 mphMostly Cloudy
10:51 AM50.0 °F44.1 °F80 %29.90 in10.0 miVariable4.6 mphMostly Cloudy
11:51 AM55.0 °F44.1 °F67 %29.90 in10.0 miWest (270°)8.1 mphScattered Clouds
12:51 PM60.1 °F33.1 °F36 %29.88 in10.0 miWest (280°)11.5 mph18.4 mphPartly Cloudy
1:51 PM62.1 °F32.0 °F32 %29.87 in10.0 miWest (270°)10.4 mph18.4 mphPartly Cloudy
2:51 PM64.0 °F28.0 °F26 %29.85 in10.0 miWNW (300°)10.4 mph20.7 mphPartly Cloudy
3:51 PM64.9 °F24.1 °F21 %29.85 in10.0 miWNW (290°)13.8 mph21.9 mphClear
4:51 PM66.0 °F19.0 °F17 %29.86 in10.0 miWNW (290°)11.5 mph24.2 mphClear
5:51 PM64.9 °F23.0 °F20 %29.87 in10.0 miWest (270°)13.8 mph19.6 mphPartly Cloudy
6:51 PM63.0 °F16.0 °F16 %29.91 in10.0 miWest (280°)16.1 mph25.3 mphPartly Cloudy
7:51 PM59.0 °F18.0 °F20 %29.92 in10.0 miWest (270°)5.8 mphPartly Cloudy
8:51 PM55.0 °F21.9 °F28 %29.96 in10.0 miWest (260°)5.8 mphPartly Cloudy
9:51 PM55.9 °F19.9 °F25 %29.99 in10.0 miWNW (300°)6.9 mphPartly Cloudy
10:51 PM54.0 °F12.0 °F19 %30.01 in10.0 miNW (310°)8.1 mphPartly Cloudy
11:51 PM52.0 °F7.0 °F16 %30.02 in10.0 miNW (310°)5.8 mphScattered Clouds
Hourly data recorded from KRDU, located miles away from Cary, North Carolina







STORIES FROM OUR PARTNERS